�������r�C�����j�^�v���󋵏��
Date,Time,5�C6���@���p�r�C��,����,����(m/s)
2021/12/31,00:00,4.2,�k,7.0
2021/12/31,00:10,4.1,�k,6.1
2021/12/31,00:20,4.2,�k�k��,6.9
2021/12/31,00:30,4.1,�k,6.7
2021/12/31,00:40,4.2,�k�k��,6.4
2021/12/31,00:50,4.1,�k�k��,6.1
2021/12/31,01:00,4.1,�k�k��,4.9
2021/12/31,01:10,4.2,�k�k��,4.8
2021/12/31,01:20,4.1,�k�k��,5.3
2021/12/31,01:30,3.9,�k�k��,4.2
2021/12/31,01:40,4.1,�k�k��,4.7
2021/12/31,01:50,4.1,�k�k��,4.1
2021/12/31,02:00,4.2,�k�k��,4.2
2021/12/31,02:10,4.3,�k�k��,4.1
2021/12/31,02:20,4.2,�k�k��,4.3
2021/12/31,02:30,4.2,�k�k��,5.0
2021/12/31,02:40,4.0,�k�k��,4.6
2021/12/31,02:50,4.1,�k�k��,4.3
2021/12/31,03:00,4.3,�k�k��,4.8
2021/12/31,03:10,4.2,�k,5.2
2021/12/31,03:20,4.0,�k,5.6
2021/12/31,03:30,4.1,�k,5.1
2021/12/31,03:40,4.2,�k,6.8
2021/12/31,03:50,3.9,�k�k��,6.2
2021/12/31,04:00,4.1,�k�k��,6.3
2021/12/31,04:10,4.2,�k��,7.5
2021/12/31,04:20,4.1,�k��,7.6
2021/12/31,04:30,4.3,�k�k��,5.7
2021/12/31,04:40,4.2,�k�k��,5.3
2021/12/31,04:50,4.2,�k�k��,5.5
2021/12/31,05:00,4.2,�k�k��,6.0
2021/12/31,05:10,4.2,�k�k��,6.8
2021/12/31,05:20,4.1,�k�k��,6.0
2021/12/31,05:30,4.1,�k�k��,6.5
2021/12/31,05:40,4.1,�k�k��,4.7
2021/12/31,05:50,4.2,�k�k��,5.2
2021/12/31,06:00,4.0,�k�k��,6.5
2021/12/31,06:10,4.1,�k�k��,5.5
2021/12/31,06:20,4.0,�k�k��,5.8
2021/12/31,06:30,4.1,�k��,5.5
2021/12/31,06:40,4.1,�k�k��,4.5
2021/12/31,06:50,4.1,�k�k��,3.9
2021/12/31,07:00,4.1,�k�k��,4.8
2021/12/31,07:10,4.1,�k�k��,6.5
2021/12/31,07:20,4.2,�k�k��,7.2
2021/12/31,07:30,4.0,�k�k��,6.5
2021/12/31,07:40,4.2,�k�k��,6.1
2021/12/31,07:50,4.0,�k�k��,6.1
2021/12/31,08:00,4.2,�k�k��,6.1
2021/12/31,08:10,4.0,�k�k��,5.5
2021/12/31,08:20,4.2,�k�k��,5.7
2021/12/31,08:30,4.0,�k,5.2
2021/12/31,08:40,4.1,�k�k��,4.7
2021/12/31,08:50,4.1,�k�k��,5.9
2021/12/31,09:00,4.1,�k,4.5
2021/12/31,09:10,4.0,�k�k��,4.6
2021/12/31,09:20,4.1,�k�k��,4.9
2021/12/31,09:30,4.1,�k�k��,4.6
2021/12/31,09:40,3.9,�k,4.0
2021/12/31,09:50,4.0,�k�k��,3.8
2021/12/31,10:00,4.1,�k��,3.6
2021/12/31,10:10,4.3,�k,4.9
2021/12/31,10:20,4.1,�k��,6.6
2021/12/31,10:30,4.1,�k��,6.5
2021/12/31,10:40,4.1,���k��,7.4
2021/12/31,10:50,4.1,�k��,8.7
2021/12/31,11:00,4.2,���k��,10.9
2021/12/31,11:10,3.9,���k��,8.0
2021/12/31,11:20,4.1,�k��,8.8
2021/12/31,11:30,4.0,�k��,8.9
2021/12/31,11:40,4.0,���k��,8.2
2021/12/31,11:50,4.2,�k��,8.0
2021/12/31,12:00,4.1,�k��,12.4
2021/12/31,12:10,4.1,���k��,11.8
2021/12/31,12:20,4.0,���k��,14.4
2021/12/31,12:30,4.3,���k��,10.8
2021/12/31,12:40,4.1,���k��,10.9
2021/12/31,12:50,4.1,���k��,8.2
2021/12/31,13:00,3.9,���k��,9.0
2021/12/31,13:10,4.2,��,8.1
2021/12/31,13:20,4.1,���k��,5.8
2021/12/31,13:30,4.1,��,5.6
2021/12/31,13:40,4.1,���k��,4.4
2021/12/31,13:50,4.1,�k��,8.5
2021/12/31,14:00,4.2,�k��,10.4
2021/12/31,14:10,4.2,�k��,11.6
2021/12/31,14:20,4.2,�k��,11.3
2021/12/31,14:30,4.1,���k��,10.2
2021/12/31,14:40,4.2,���k��,9.0
2021/12/31,14:50,4.1,���k��,7.4
2021/12/31,15:00,4.2,���k��,7.3
2021/12/31,15:10,4.1,���k��,6.2
2021/12/31,15:20,4.0,���k��,9.4
2021/12/31,15:30,4.0,���k��,6.7
2021/12/31,15:40,4.1,���k��,7.6
2021/12/31,15:50,4.1,���k��,6.4
2021/12/31,16:00,4.0,���k��,5.8
2021/12/31,16:10,4.2,��,5.2
2021/12/31,16:20,4.2,��,5.4
2021/12/31,16:30,4.2,���k��,3.1
2021/12/31,16:40,3.9,���k��,3.3
2021/12/31,16:50,3.9,�k�k��,5.4
2021/12/31,17:00,4.0,�k,6.4
2021/12/31,17:10,4.1,�k,6.9
2021/12/31,17:20,4.0,�k,6.8
2021/12/31,17:30,4.1,�k,6.2
2021/12/31,17:40,4.0,�k�k��,5.0
2021/12/31,17:50,4.2,�k��,3.8
2021/12/31,18:00,4.1,���k��,4.9
2021/12/31,18:10,3.8,���k��,5.0
2021/12/31,18:20,4.1,���k��,7.9
2021/12/31,18:30,4.0,���k��,5.7
2021/12/31,18:40,4.0,�k��,6.9
2021/12/31,18:50,4.1,�k��,7.4
2021/12/31,19:00,4.1,�k�k��,6.2
2021/12/31,19:10,4.1,�k��,5.3
2021/12/31,19:20,4.1,���k��,7.3
2021/12/31,19:30,3.9,�k��,7.2
2021/12/31,19:40,4.3,�k��,5.8
2021/12/31,19:50,4.0,���k��,8.6
2021/12/31,20:00,4.2,���k��,7.5
2021/12/31,20:10,4.2,���k��,4.9
2021/12/31,20:20,4.2,���k��,7.6
2021/12/31,20:30,4.1,��,11.6
2021/12/31,20:40,4.2,��,13.8
2021/12/31,20:50,4.1,��,12.4
2021/12/31,21:00,4.0,��,13.3
2021/12/31,21:10,4.1,��,11.7
2021/12/31,21:20,4.0,��,11.8
2021/12/31,21:30,4.1,��,11.1
2021/12/31,21:40,4.0,��,11.8
2021/12/31,21:50,4.0,���쐼,7.8
2021/12/31,22:00,4.0,���쐼,9.7
2021/12/31,22:10,4.2,���쐼,8.9
2021/12/31,22:20,4.0,���쐼,7.9
2021/12/31,22:30,4.0,��,10.4
2021/12/31,22:40,4.2,��,9.6
2021/12/31,22:50,4.1,��,10.2
2021/12/31,23:00,4.1,���쐼,10.2
2021/12/31,23:10,4.0,��,10.9
2021/12/31,23:20,4.0,���쐼,9.1
2021/12/31,23:30,4.1,��,8.7
2021/12/31,23:40,4.3,���쐼,8.1
2021/12/31,23:50,4.1,��,7.6
